Location: Dos Palmas
(32.4468°N, 116.8732°W)
Time: 23:00:39
(UTC+00:00)

Landsat 7 - Pass Details

Date: 20 June 2021
Orbit: 701 x 703 km, 98.0° (Epoch: 01 August)

Event Time Altitude Azimuth Distance (km) Brightness Sun altitude
Exits shadow 04:38:30 30° 162° (SSE) 1,238 4.6 -18.0°
Maximum altitude 04:40:51 82° 77° (ENE) 713 3.7 -18.3°
Drops below altitude 10° 04:45:37 10° 350° (N) 2,174 7.2 -19.0°
Sets 04:47:53 0° 349° (N) 3,096 8.1 -19.3°
